Marshfield, MA

1:56 AM EST on November 17, 2019 (GMT -0500)
Marshfield

Weather History for KGHG - July, 2019

Change the Weather History Date:

Tuesday, July 30, 2019

  Actual Average (KPYM) Record (KPYM)
Temperature  
Mean Temperature 83 °F -  
Max Temperature 93 °F 80 °F 100 °F (1949)
Min Temperature 73 °F 60 °F 48 °F (1968)
Cooling Degree Days 18    
Growing Degree Days 33 (Base 50)    
Moisture  
Dew Point 72 °F    
Average Humidity 72    
Maximum Humidity 100    
Minimum Humidity 46    
Precipitation  
Precipitation 0.00 in - - ()
Sea Level Pressure  
Sea Level Pressure 29.97 in    
Wind  
Wind Speed 5 mph (SW)    
Max Wind Speed 10 mph    
Max Gust Speed 20 mph    
Visibility 10 miles    
Events      
Averages and records for this station are not official NWS values.
T = Trace of Precipitation, MM = Missing Value Source: NWS Daily Summary

Daily Weather History Graph

Daily Weather History Graph

Search for Another Location

Airport or City:

Astronomy

Jul. 30, 2019 Rise Set
Actual Time 5:33 AM EDT 8:04 PM EDT
Civil Twilight 5:01 AM EDT 8:35 PM EDT
Nautical Twilight 4:22 AM EDT 9:15 PM EDT
Astronomical Twilight 3:37 AM EDT 9:59 PM EDT
Moon 3:37 AM EDT (7/30) 7:07 PM EDT (7/30)
Length of Visible Light 15h 33m
Length of Day
14h 30m
Waning Crescent, 3% of the Moon is Illuminated
Jul 30
Waning Crescent
Jul 31
New
Aug 7
First Quarter
Aug 15
Full
Aug 23
Last Quarter

Hourly Weather History & Observations

Time (EDT) Temp. Heat Index Dew Point Humidity Pressure Visibility Wind Dir Wind Speed Gust Speed Precip Events Conditions
12:15 AM 75.2 °F - 71.6 °F 89% 29.97 in 10.0 mi WSW 3.5 mph - N/A   Clear
12:35 AM 75.2 °F - 71.6 °F 89% 29.97 in 10.0 mi WSW 4.6 mph - N/A   Clear
12:55 AM 75.2 °F - 71.6 °F 89% 29.96 in 10.0 mi WSW 4.6 mph - N/A   Clear
1:15 AM 75.2 °F - 71.6 °F 89% 29.96 in 10.0 mi SW 3.5 mph - N/A   Clear
1:35 AM 75.2 °F - 71.6 °F 89% 29.96 in 10.0 mi SW 4.6 mph - N/A   Clear
1:55 AM 75.2 °F - 71.6 °F 89% 29.95 in 10.0 mi Variable 4.6 mph - N/A   Clear
2:15 AM 73.4 °F - 71.6 °F 94% 29.95 in 10.0 mi SW 4.6 mph - N/A   Clear
2:35 AM 73.4 °F - 71.6 °F 94% 29.95 in 10.0 mi Variable 4.6 mph - N/A   Clear
2:55 AM 73.4 °F - 71.6 °F 94% 29.95 in 10.0 mi SW 3.5 mph - N/A   Clear
3:15 AM 73.4 °F - 71.6 °F 94% 29.95 in 10.0 mi Variable 4.6 mph - N/A   Clear
3:35 AM 73.4 °F - 71.6 °F 94% 29.95 in 10.0 mi WSW 4.6 mph - N/A   Clear
3:55 AM 73.4 °F - 71.6 °F 94% 29.95 in 10.0 mi Calm Calm - N/A   Clear
4:15 AM 73.4 °F - 71.6 °F 94% 29.95 in 10.0 mi WSW 3.5 mph - N/A   Clear
4:35 AM 73.4 °F - 71.6 °F 94% 29.96 in 10.0 mi West 3.5 mph - N/A   Clear
4:55 AM 73.4 °F - 71.6 °F 94% 29.96 in 10.0 mi Calm Calm - N/A   Clear
5:15 AM 73.4 °F - 71.6 °F 94% 29.96 in 10.0 mi WSW 3.5 mph - N/A   Clear
5:35 AM 73.4 °F - 71.6 °F 94% 29.97 in 10.0 mi WSW 3.5 mph - N/A   Clear
5:55 AM 73.4 °F - 73.4 °F 100% 29.97 in 10.0 mi Calm Calm - N/A   Clear
6:15 AM 73.4 °F - 73.4 °F 100% 29.97 in 10.0 mi Variable 5.8 mph - N/A   Clear
6:35 AM 73.4 °F - 73.4 °F 100% 29.97 in 10.0 mi SW 3.5 mph - N/A   Clear
6:55 AM 75.2 °F - 73.4 °F 94% 29.98 in 10.0 mi Variable 4.6 mph - N/A   Clear
7:15 AM 77.0 °F - 73.4 °F 89% 29.98 in 10.0 mi SW 5.8 mph - N/A   Clear
7:35 AM 78.8 °F - 73.4 °F 83% 29.98 in 10.0 mi WSW 6.9 mph - N/A   Clear
7:55 AM 78.8 °F - 73.4 °F 83% 29.99 in 10.0 mi SW 6.9 mph - N/A   Clear
8:15 AM 80.6 °F 85.4 °F 73.4 °F 79% 29.99 in 10.0 mi SW 6.9 mph 12.7 mph N/A   Clear
8:35 AM 82.4 °F 88.2 °F 73.4 °F 74% 29.99 in 10.0 mi Variable 6.9 mph - N/A   Clear
8:55 AM 82.4 °F 88.2 °F 73.4 °F 74% 29.99 in 10.0 mi SW 5.8 mph - N/A   Clear
9:15 AM 82.4 °F 88.2 °F 73.4 °F 74% 29.99 in 10.0 mi Variable 6.9 mph - N/A   Clear
9:35 AM 82.4 °F 89.5 °F 75.2 °F 79% 30.00 in 10.0 mi SSW 3.5 mph - N/A   Clear
9:55 AM 86.0 °F 95.1 °F 75.2 °F 70% 29.99 in 10.0 mi WSW 8.1 mph - N/A   Clear
10:15 AM 87.8 °F 97.6 °F 75.2 °F 66% 29.99 in 10.0 mi Variable 4.6 mph - N/A   Clear
10:35 AM 87.8 °F 95.6 °F 73.4 °F 62% 29.99 in 10.0 mi Variable 4.6 mph - N/A   Clear
10:55 AM 89.6 °F 98.2 °F 73.4 °F 59% 29.99 in 10.0 mi Variable 5.8 mph - N/A   Clear
11:15 AM 89.6 °F 98.2 °F 73.4 °F 59% 29.99 in 10.0 mi Variable 6.9 mph - N/A   Clear
11:35 AM 91.4 °F 100.1 °F 73.4 °F 55% 29.99 in 10.0 mi Variable 4.6 mph 11.5 mph N/A   Clear
11:55 AM 91.4 °F 100.1 °F 73.4 °F 55% 29.99 in 10.0 mi SSW 5.8 mph 11.5 mph N/A   Clear
12:15 PM 91.4 °F 100.1 °F 73.4 °F 55% 29.98 in 10.0 mi SSW 5.8 mph - N/A   Partly Cloudy
12:35 PM 91.4 °F 98.4 °F 71.6 °F 52% 29.98 in 10.0 mi Variable 5.8 mph 13.8 mph N/A   Scattered Clouds
12:55 PM 91.4 °F 98.4 °F 71.6 °F 52% 29.98 in 10.0 mi Variable 6.9 mph - N/A   Partly Cloudy
1:15 PM 93.2 °F 100.5 °F 71.6 °F 49% 29.98 in 10.0 mi SW 8.1 mph - N/A   Partly Cloudy
1:35 PM 93.2 °F 98.8 °F 69.8 °F 46% 29.97 in 10.0 mi Variable 5.8 mph - N/A   Partly Cloudy
1:55 PM 93.2 °F 100.5 °F 71.6 °F 49% 29.97 in 10.0 mi Variable 6.9 mph 15.0 mph N/A   Partly Cloudy
2:15 PM 93.2 °F 98.8 °F 69.8 °F 46% 29.97 in 10.0 mi SSW 9.2 mph - N/A   Clear
2:35 PM 91.4 °F 98.4 °F 71.6 °F 52% 29.97 in 10.0 mi SSW 5.8 mph 12.7 mph N/A   Partly Cloudy
2:55 PM 93.2 °F 100.5 °F 71.6 °F 49% 29.96 in 10.0 mi SW 6.9 mph - N/A   Clear
3:15 PM 93.2 °F 100.5 °F 71.6 °F 49% 29.96 in 10.0 mi Variable 8.1 mph - N/A   Clear
3:35 PM 93.2 °F 100.5 °F 71.6 °F 49% 29.95 in 10.0 mi SW 8.1 mph 18.4 mph N/A   Partly Cloudy
3:55 PM 93.2 °F 102.4 °F 73.4 °F 52% 29.95 in 10.0 mi SSW 8.1 mph 15.0 mph N/A   Partly Cloudy
4:15 PM 93.2 °F 102.4 °F 73.4 °F 52% 29.94 in 10.0 mi SSW 10.4 mph - N/A   Scattered Clouds
4:35 PM 93.2 °F 100.5 °F 71.6 °F 49% 29.94 in 10.0 mi SSW 10.4 mph 18.4 mph N/A   Partly Cloudy
4:55 PM 91.4 °F 98.4 °F 71.6 °F 52% 29.94 in 10.0 mi SW 10.4 mph 19.6 mph N/A   Clear
5:15 PM 91.4 °F 98.4 °F 71.6 °F 52% 29.94 in 10.0 mi SW 10.4 mph - N/A   Clear
5:35 PM 91.4 °F 98.4 °F 71.6 °F 52% 29.94 in 10.0 mi SSW 10.4 mph - N/A   Clear
5:55 PM 89.6 °F 96.2 °F 71.6 °F 55% 29.94 in 10.0 mi SSW 9.2 mph 15.0 mph N/A   Clear
6:15 PM 89.6 °F 96.2 °F 71.6 °F 55% 29.94 in 10.0 mi Variable 6.9 mph 15.0 mph N/A   Clear
6:35 PM 87.8 °F 92.6 °F 69.8 °F 55% 29.94 in 10.0 mi SW 10.4 mph 17.3 mph N/A   Clear
6:55 PM 87.8 °F 92.6 °F 69.8 °F 55% 29.95 in 10.0 mi SW 9.2 mph 18.4 mph N/A   Clear
7:15 PM 86.0 °F 90.4 °F 69.8 °F 58% 29.95 in 10.0 mi SSW 6.9 mph 13.8 mph N/A   Clear
7:35 PM 84.2 °F 88.4 °F 69.8 °F 62% 29.96 in 10.0 mi SW 9.2 mph 15.0 mph N/A   Clear
7:55 PM 82.4 °F 86.3 °F 69.8 °F 66% 29.97 in 10.0 mi SSW 8.1 mph - N/A   Clear
8:15 PM 82.4 °F 86.3 °F 69.8 °F 66% 29.97 in 10.0 mi SW 5.8 mph - N/A   Clear
8:35 PM 80.6 °F 83.9 °F 69.8 °F 70% 29.98 in 10.0 mi SW 6.9 mph - N/A   Clear
8:55 PM 80.6 °F 84.6 °F 71.6 °F 74% 29.98 in 10.0 mi SW 6.9 mph - N/A   Clear
9:15 PM 80.6 °F 84.6 °F 71.6 °F 74% 29.98 in 10.0 mi Variable 6.9 mph - N/A   Clear
9:35 PM 78.8 °F - 71.6 °F 78% 29.98 in 10.0 mi SW 6.9 mph 12.7 mph N/A   Clear
9:55 PM 78.8 °F - 71.6 °F 78% 29.99 in 10.0 mi SW 6.9 mph - N/A   Clear
10:15 PM 78.8 °F - 71.6 °F 78% 29.99 in 10.0 mi Variable 6.9 mph - N/A   Clear
10:35 PM 78.8 °F - 71.6 °F 78% 29.99 in 10.0 mi SW 8.1 mph - N/A   Clear
10:55 PM 78.8 °F - 71.6 °F 78% 29.99 in 10.0 mi Variable 6.9 mph - N/A   Clear
11:15 PM 77.0 °F - 71.6 °F 83% 30.00 in 10.0 mi SW 5.8 mph - N/A   Clear
11:35 PM 77.0 °F - 71.6 °F 83% 29.99 in 10.0 mi SW 8.1 mph 13.8 mph N/A   Clear
11:55 PM 77.0 °F - 71.6 °F 83% 30.00 in 10.0 mi SW 6.9 mph - N/A   Clear